PRAETORIAN SDA_603

Last updated on Sat Jun 27 2026 00:03:47 GMT+0000 (Coordinated Universal Time)

1 65566U 25203B 26177.44950022 .00000188 00000+0 15865-3 0 9993 2 65566 81.3035 2.1106 0009844 162.4511 197.6988 13.83906517 39985
UTC large
Height (km)
Speed (km/s)
/
Latitude / Longitude
Inclination (degrees)
Orbital Period (minutes)
Azimuth
Elevation
Range (km)
Doppler Factor

Next 0 passes for location: London (51.5072 / 0.1276)

No passes found over London.
PRAETORIAN SDA_603